Dewpoint
73 72 72 73 74 73 72 70 59 61 60 52 53 56 55 62 59 58 58 60 60 58 58 59 58 57 59 58 59 61 62 62 61 57 58 61 65 66 70 71 72 72 73 74 76 76 76 77 77 77 77 77 77 77 77 77 77 76 76 77 76 76 76 77 77 77 77 77 77 76 77 77 77 78 78 78 78 78 78 78 78 78 78 78 78 78 78 78 78 78 78 78 78 78 78 78 78
70 70 72 73 73 72 65 68 60 54 53 56 56 58 58 60 60 57 56 61 55 57 57 57 58 57 58 58 57 61 61 62 63 63 61 59 61 68 70 71 71 71 73 74 75 75 76 76 77 77 77 77 77 77 77 76 77 76 76 76 77 76 76 76 76 77 77 77 77 77 76 77 77 77 78 77 77 77 77 78 78 78 78 78 78 78 78 78 78 78 78 78 78 78 78 78 77
69 70 72 73 72 69 67 66 55 56 52 52 58 60 61 59 59 59 57 60 59 58 60 60 58 57 57 59 59 60 59 64 62 59 57 58 60 67 70 71 72 72 73 73 74 75 76 76 77 77 76 77 77 76 77 76 77 77 77 76 76 76 76 76 76 77 77 77 77 77 77 77 77 77 77 77 77 77 78 78 78 78 77 78 78 78 78 78 78 78 77 77 78 78 78 77 77
70 71 70 72 69 68 63 65 57 59 54 54 53 58 58 58 59 61 61 58 58 58 59 61 60 60 61 57 61 64 63 62 62 57 55 56 60 65 70 71 73 72 72 73 74 75 76 77 77 77 77 76 76 76 76 76 76 77 77 76 76 76 76 76 76 76 76 76 76 77 77 77 77 77 76 76 77 78 78 78 78 77 77 77 77 77 78 77 78 78 77 77 77 77 77 77 77
70 71 69 69 66 61 60 58 59 59 51 55 53 58 60 60 63 60 58 57 57 58 57 59 60 61 60 61 62 61 62 62 60 58 57 58 62 65 70 71 72 71 72 73 74 75 76 77 77 76 75 76 76 76 76 76 76 77 77 77 76 76 76 76 76 76 76 76 76 76 76 76 76 76 76 76 76 77 77 78 78 77 77 77 77 77 77 77 78 78 77 77 77 77 78 77 77
70 70 72 69 65 64 63 58 55 57 58 60 55 57 61 62 64 64 55 56 57 62 61 63 57 58 60 62 63 62 64 61 60 60 60 57 64 68 70 71 71 71 72 73 74 75 75 77 77 77 76 75 76 76 77 76 76 76 76 76 77 76 76 76 77 76 76 76 76 76 76 76 76 76 76 76 76 76 77 78 77 77 77 77 77 77 77 76 76 77 77 77 77 77 77 77 77
70 70 69 68 68 64 57 55 55 56 58 62 59 60 62 63 66 63 57 59 56 62 63 59 61 58 59 62 63 63 64 63 63 60 57 59 65 67 69 70 71 71 73 74 73 74 74 77 77 77 77 77 76 76 76 76 76 76 76 77 77 77 76 76 76 76 77 76 76 76 76 76 76 76 76 76 76 76 77 78 77 77 76 76 77 77 77 77 76 77 77 77 77 77 77 77 77
70 60 64 60 59 61 58 56 55 57 58 62 62 61 63 64 66 63 60 63 60 63 59 59 58 61 60 63 62 65 65 66 62 59 56 60 64 65 67 70 70 70 71 73 73 74 77 77 77 77 77 77 77 76 76 76 76 76 76 76 77 77 76 76 77 76 76 76 75 76 76 76 76 76 75 75 75 76 77 77 77 77 76 76 77 77 76 76 76 76 76 76 76 77 77 77 77
65 63 65 62 58 62 61 57 57 60 59 61 61 64 64 65 65 65 60 65 65 62 60 59 58 59 60 62 62 64 63 62 60 60 57 61 61 63 67 69 69 70 70 71 73 75 75 76 77 77 77 77 77 77 77 76 76 76 76 76 75 76 76 76 76 76 76 76 77 76 76 76 75 75 75 74 75 76 76 77 77 76 77 77 77 76 76 76 76 76 76 76 76 77 77 77 77
61 61 59 59 59 53 60 56 55 54 58 62 62 63 64 66 65 64 62 63 65 65 60 59 58 57 60 61 61 62 62 61 58 57 57 58 61 65 66 68 69 70 71 72 73 73 74 77 77 77 76 76 76 76 77 76 76 76 76 75 75 75 76 76 76 76 76 77 76 76 75 75 76 76 75 75 76 76 77 76 77 76 76 76 76 76 76 76 76 76 76 76 76 76 77 77 77
53 62 62 55 55 53 51 51 54 57 59 62 61 63 63 65 65 62 63 63 64 60 62 65 62 60 62 62 62 63 62 60 58 55 55 56 60 64 66 68 69 70 71 72 73 73 73 75 77 77 76 76 76 76 76 76 77 76 76 76 76 76 76 76 76 76 76 75 75 75 74 74 74 74 74 75 75 75 75 75 76 76 76 76 76 76 76 76 75 75 75 76 76 76 76 77 77
49 49 58 53 47 50 51 51 53 55 59 61 58 63 62 66 66 63 63 62 64 63 63 64 59 59 60 61 62 62 61 59 58 56 56 58 59 64 66 67 69 71 72 72 72 73 73 74 75 77 77 76 76 76 76 76 76 76 76 76 76 76 76 76 76 75 75 74 74 75 74 74 73 73 74 74 74 75 75 74 74 75 76 76 76 76 75 75 75 75 76 75 76 76 76 76 76
46 52 44 46 41 48 51 53 54 56 57 58 59 62 65 64 63 64 63 63 65 63 60 64 61 63 60 61 62 62 60 59 58 58 58 59 59 66 66 68 69 70 71 73 72 73 74 74 73 75 75 76 76 76 76 76 76 76 76 75 76 75 76 76 75 76 75 74 74 74 73 73 74 74 73 74 74 75 75 75 74 75 76 76 76 75 75 75 75 75 75 75 75 75 75 75 76
47 50 45 46 41 42 46 52 57 55 50 58 62 62 65 64 63 65 64 62 64 61 60 60 60 61 60 61 62 62 61 61 60 60 60 60 60 62 66 67 69 70 70 71 72 72 73 74 74 74 75 75 75 75 76 76 76 76 76 76 76 76 76 75 76 76 76 75 74 74 73 74 74 73 73 74 74 75 75 75 74 75 75 76 76 76 75 75 75 75 75 75 74 74 74 74 75
41 47 45 44 34 39 46 48 47 48 51 58 60 62 61 63 65 65 64 63 64 67 62 62 63 60 58 62 62 63 62 62 61 61 61 61 60 61 67 67 68 69 69 70 71 72 72 73 74 74 75 75 75 75 75 75 76 76 76 76 76 76 76 75 76 75 74 74 75 74 74 75 74 74 74 74 75 75 74 74 74 75 75 75 76 76 75 75 75 75 74 74 74 74 74 74 75
40 41 42 40 35 38 38 43 50 50 53 58 61 62 62 62 64 64 63 63 63 68 64 60 61 61 61 63 63 62 62 62 61 62 61 61 62 61 62 67 68 69 70 70 71 71 72 73 74 74 74 75 75 75 75 75 76 76 75 76 76 76 76 76 75 75 75 75 74 75 75 74 74 75 74 74 75 75 74 74 75 75 75 75 76 76 75 75 75 75 74 74 74 74 74 75 75
39 47 40 33 35 38 41 44 46 47 52 55 61 62 63 62 63 64 63 64 63 61 63 64 65 66 66 65 62 63 62 62 64 61 61 61 62 61 63 66 67 68 69 70 71 71 71 73 73 73 74 75 74 74 75 75 75 76 76 76 76 76 75 76 75 75 75 75 75 74 75 74 75 74 74 74 74 74 75 75 75 74 75 75 75 75 76 75 75 75 75 74 74 74 75 75 75
37 39 33 36 35 38 45 45 48 50 51 55 57 58 62 60 61 61 60 62 61 62 63 66 67 69 68 64 61 62 63 62 61 60 61 62 61 61 62 65 65 68 69 69 70 71 71 71 71 72 74 74 74 74 74 75 75 75 75 75 75 75 75 75 75 76 75 76 75 75 75 75 74 75 74 74 74 74 74 75 75 75 74 74 74 75 75 75 75 75 75 75 74 75 75 74 75
28 36 36 36 40 41 45 48 50 52 52 55 56 57 57 56 61 59 63 61 60 62 65 65 66 67 67 61 61 62 61 61 60 60 60 60 60 60 61 63 65 66 69 69 70 70 71 71 71 71 72 74 74 73 74 75 74 76 75 76 75 76 75 75 75 75 75 76 75 75 76 75 74 75 74 73 74 75 74 75 75 74 74 74 73 74 75 75 75 75 75 75 74 75 75 76 76
21 35 34 37 43 45 50 53 54 55 55 54 54 54 55 55 58 57 59 60 61 62 62 63 65 66 66 59 60 60 60 60 60 60 60 59 60 60 61 61 63 65 67 68 69 70 71 72 71 72 73 73 73 73 73 73 74 76 75 74 74 75 75 75 75 75 75 75 75 75 75 75 74 75 74 74 75 74 74 75 75 74 73 74 74 73 74 74 74 75 74 75 74 75 75 74 74
31 30 32 40 38 41 47 53 54 55 55 55 56 57 56 54 56 58 59 59 61 63 63 64 64 65 65 59 60 59 60 59 59 59 59 59 59 60 61 61 62 66 66 69 70 69 70 71 71 72 73 73 72 73 73 73 74 74 74 74 75 75 75 75 76 75 74 73 74 74 74 75 73 74 74 75 75 75 74 75 75 74 74 74 73 73 74 74 74 74 74 75 75 74 74 74 73
27 29 30 37 39 41 44 49 57 56 58 56 53 52 52 57 52 55 56 56 55 60 64 65 66 65 62 59 57 60 59 59 58 59 59 59 58 60 60 60 62 63 68 69 70 70 69 71 72 73 73 73 73 73 73 73 74 73 74 75 75 74 75 74 76 75 74 74 74 73 74 75 73 73 74 74 75 75 75 74 74 74 74 73 73 73 73 73 73 73 73 73 74 73 72 72 72
28 27 33 35 37 39 43 51 57 55 52 53 54 54 55 54 55 53 51 57 57 60 61 63 65 64 62 60 58 59 58 57 58 58 58 59 58 59 59 60 61 62 68 68 70 70 70 71 72 73 73 73 73 73 74 73 73 74 75 75 75 74 75 75 74 76 75 74 74 74 74 74 73 73 74 75 75 75 73 73 72 74 73 73 73 73 72 73 73 73 74 73 73 72 70 71 72
18 22 28 33 36 37 41 53 59 51 54 56 59 60 51 53 51 48 52 53 58 56 61 63 64 63 62 60 57 59 57 58 58 58 58 58 58 59 58 60 60 62 65 66 67 70 70 70 72 72 73 73 74 73 74 73 73 73 73 74 74 76 75 75 74 75 74 73 74 73 75 75 75 73 73 75 74 73 73 72 72 74 72 73 73 73 72 73 73 74 73 72 71 71 69 70 70
16 20 30 34 36 36 39 48 53 59 59 61 61 54 55 54 49 48 50 50 54 57 58 59 59 63 61 59 59 59 58 58 58 58 59 60 60 60 59 61 64 62 63 66 67 69 70 71 72 71 73 73 73 72 72 73 73 73 73 73 73 74 74 74 75 74 74 74 75 72 75 74 75 74 74 74 73 72 74 72 73 72 73 73 73 73 73 73 73 72 73 72 72 72 70 69 70
20 17 23 34 33 36 41 52 54 52 61 58 57 52 55 52 52 50 48 50 49 54 59 58 62 61 63 62 61 60 58 58 63 58 57 62 58 60 65 68 64 62 67 64 65 69 71 71 71 71 71 72 73 71 74 74 74 73 73 74 75 75 73 74 74 73 73 74 74 75 74 74 74 75 74 73 72 73 74 73 74 73 74 74 72 72 72 73 73 72 71 71 70 72 71 69 70
20 17 19 30 35 39 46 46 50 54 57 58 55 52 54 56 51 48 52 47 48 57 57 59 62 62 64 62 64 61 59 60 65 59 63 62 69 69 70 69 71 69 70 65 64 71 72 70 71 71 71 73 72 71 74 74 74 73 74 75 75 73 73 74 74 73 72 73 74 75 74 74 75 75 73 73 75 73 74 75 73 73 72 72 73 73 73 73 73 71 71 72 72 72 71 70 71
18 17 16 29 32 34 39 55 48 42 56 54 54 51 54 51 55 48 43 45 52 55 55 57 59 61 60 62 60 62 59 58 64 60 67 70 67 69 71 71 70 70 72 70 69 69 67 70 70 71 71 72 73 71 74 72 73 73 74 74 73 73 75 73 74 73 73 73 74 74 74 74 74 73 73 73 73 73 73 74 73 72 72 73 73 74 73 73 73 72 71 72 72 73 73 73 71
16 16 18 34 37 45 44 46 46 46 48 51 59 54 50 51 52 51 43 44 56 56 55 60 60 61 59 61 60 61 62 60 62 65 69 70 71 69 67 70 74 74 72 74 72 69 66 65 70 70 70 71 71 71 72 72 73 72 73 73 73 72 74 73 73 72 73 73 74 74 75 74 73 73 73 73 75 73 73 73 73 73 73 73 73 73 72 74 72 72 73 73 74 73 72 71 68
18 16 17 23 38 40 46 48 49 48 53 56 55 43 39 48 52 49 41 41 56 55 54 60 60 56 59 60 61 60 62 63 61 67 70 72 69 70 68 71 74 74 75 77 76 72 67 66 67 68 70 70 71 70 71 71 70 71 73 72 73 72 72 74 74 72 74 73 74 74 75 75 74 76 74 72 74 73 73 73 72 72 74 73 74 73 73 73 72 72 71 71 72 71 69 69 65
15 14 15 16 20 34 45 47 47 46 62 64 54 36 35 48 51 53 46 47 45 55 54 52 56 56 59 60 61 62 62 62 61 69 70 71 68 69 70 72 74 75 77 76 77 72 69 67 67 67 70 70 70 71 70 71 71 71 71 72 72 73 73 73 71 74 73 73 73 74 75 75 75 75 75 75 73 73 73 73 73 72 73 73 74 73 73 72 73 71 71 70 69 69 67 68 63
15 11 13 12 18 40 47 40 40 40 55 52 47 42 34 41 45 48 55 56 43 48 46 52 57 58 57 58 58 59 58 61 62 67 69 71 70 68 71 72 73 73 74 76 77 74 68 67 68 68 69 69 71 73 71 73 70 72 72 72 73 73 71 71 72 72 72 73 73 73 74 75 75 76 76 77 73 74 73 73 73 75 74 73 73 72 72 72 72 70 70 68 67 65 67 64 67
12 12 10 14 21 36 38 44 43 44 47 51 52 33 40 39 43 48 53 53 38 49 44 49 55 53 53 57 56 59 59 59 61 68 70 68 70 68 70 72 72 73 73 76 73 74 68 68 71 68 68 69 71 71 73 72 74 73 72 72 70 72 71 70 72 74 72 73 73 72 74 74 75 75 75 76 76 73 74 73 73 74 74 73 73 72 72 71 69 67 70 69 67 71 64 60 62
12 10 11 20 16 27 30 37 47 46 43 31 49 42 36 33 36 47 54 50 37 44 43 47 55 54 57 57 55 57 60 58 63 67 67 68 69 69 71 72 72 71 72 73 73 70 68 68 69 68 69 68 71 72 74 73 74 75 72 72 73 71 70 69 71 73 72 72 72 72 74 74 76 75 75 75 76 73 73 73 72 73 73 75 75 71 71 69 69 66 67 68 68 70 72 63 61
13 18 16 18 17 17 18 28 37 42 44 31 23 22 24 27 30 49 55 50 38 45 43 44 50 47 51 51 55 55 57 61 61 66 66 69 69 70 70 71 71 70 71 71 72 70 69 69 70 71 69 71 72 74 76 74 74 75 72 72 72 71 74 70 71 73 72 73 72 73 74 74 75 74 75 75 76 75 74 74 73 73 74 75 73 72 71 69 66 65 62 71 72 70 72 71 71
13 15 17 19 14 14 15 17 32 30 22 22 18 19 22 25 29 52 51 48 46 39 46 44 42 45 51 53 53 58 60 64 68 66 64 67 69 70 71 71 70 70 70 71 71 70 71 71 69 73 72 71 72 74 74 73 73 73 70 70 70 70 70 71 71 71 72 72 71 73 74 74 74 74 76 75 76 76 73 73 73 72 74 73 71 69 68 70 68 69 66 66 72 73 74 71 70
16 14 13 18 12 12 12 16 34 39 29 16 22 23 22 24 29 38 49 50 46 40 39 50 48 49 53 57 54 61 63 64 67 67 66 66 71 69 70 71 70 69 69 69 69 71 71 71 71 72 72 74 73 74 73 72 72 72 71 67 66 68 70 69 69 71 71 71 72 72 74 75 74 75 75 75 75 75 75 75 74 74 74 73 72 69 69 65 72 71 78 78 69 74 72 68 66
16 13 10 11 6 9 20 30 42 48 32 22 24 24 26 29 29 32 36 45 43 39 40 43 45 50 56 54 55 60 62 65 67 67 69 70 70 71 69 70 71 69 68 68 69 71 71 71 71 71 74 75 75 75 74 72 73 71 70 68 67 66 68 69 69 70 70 71 73 74 74 74 74 75 75 75 75 74 75 73 74 74 73 72 72 72 71 76 73 72 72 76 73 71 71 68 66
16 12 10 10 10 10 16 32 33 42 38 27 25 22 24 28 29 32 33 33 44 46 44 44 46 54 58 57 52 56 59 63 64 65 68 69 71 71 70 70 70 70 70 68 70 71 70 72 73 73 74 73 75 75 77 74 73 73 71 70 67 65 67 69 68 73 71 73 71 73 74 74 74 74 75 75 74 73 75 73 73 73 72 72 73 74 74 74 75 71 74 74 69 69 71 68 70
13 9 8 5 11 4 15 36 37 44 33 26 24 22 28 35 37 37 46 46 54 58 53 52 54 52 53 49 50 51 54 64 65 65 66 69 68 72 70 70 70 69 71 69 69 70 70 72 73 75 74 74 74 75 74 73 73 74 74 72 71 68 68 70 71 71 72 73 71 71 72 74 74 73 73 73 73 74 74 73 71 71 72 73 74 75 74 73 74 74 71 71 73 69 67 69 70
5 5 3 2 2 3 4 30 21 42 43 31 30 35 26 32 39 35 41 43 53 54 53 52 52 59 55 57 52 54 54 62 65 66 68 70 71 70 69 70 69 69 69 68 69 70 70 71 73 75 75 74 74 75 74 75 75 74 75 73 72 71 71 70 70 69 71 72 71 70 70 73 74 73 72 73 73 75 75 74 72 71 71 72 72 74 75 71 71 72 73 73 73 73 68 68 71
3 2 1 0 -0 -0 0 5 7 13 30 31 32 24 21 31 31 29 34 38 47 48 49 46 47 51 52 50 56 57 64 62 65 65 66 68 69 70 69 69 69 67 68 66 67 69 70 71 73 75 75 75 74 74 75 76 75 74 74 73 71 71 71 69 68 67 68 71 69 68 70 72 72 72 74 73 73 73 74 73 72 69 70 73 73 71 72 71 72 71 72 72 72 72 73 69 65
-0 -1 1 -1 0 2 4 5 6 10 16 38 32 20 18 27 30 34 36 38 52 52 49 48 55 61 52 61 60 63 62 62 62 63 66 66 67 69 69 69 68 68 68 68 68 70 71 73 74 74 75 75 74 74 75 76 74 73 71 68 67 69 69 69 71 69 68 69 68 69 69 71 72 71 72 73 72 74 74 73 73 72 69 72 74 74 73 69 68 68 71 72 73 74 75 74 69
-3 -2 -0 4 7 7 7 4 4 11 10 34 30 17 19 22 35 34 38 40 42 47 48 53 56 56 51 52 55 61 63 61 66 62 62 63 67 67 67 68 67 66 68 68 70 71 73 74 73 75 76 75 74 74 75 75 74 73 72 70 69 68 66 69 69 70 68 71 70 68 68 69 71 71 71 73 72 72 73 73 74 72 70 70 73 72 71 69 70 70 73 73 77 77 75 74 70
-6 -2 3 8 10 9 7 5 4 5 6 12 13 21 26 26 37 41 40 34 41 41 46 47 51 49 49 52 53 58 62 63 63 66 68 69 69 69 68 69 67 67 68 68 69 71 72 74 75 76 76 76 75 75 75 74 75 74 73 70 71 70 68 68 70 70 70 70 69 69 69 68 71 72 73 71 71 71 73 72 72 73 70 71 74 72 71 69 68 71 75 75 75 76 74 74 76
-1 3 9 9 7 8 7 5 7 10 14 17 18 13 17 20 32 29 34 31 34 39 40 40 44 51 51 50 53 52 60 67 67 66 66 67 68 69 72 70 70 68 69 70 74 73 73 75 75 76 75 76 76 76 75 75 74 75 74 73 72 72 72 71 70 71 72 72 70 70 71 71 69 70 71 72 72 72 72 73 70 69 68 68 71 71 71 71 72 74 73 72 73 74 76 74 74
5 5 6 4 5 6 8 12 17 17 17 20 11 10 12 13 34 26 32 36 35 36 42 46 48 47 45 46 48 45 48 64 67 66 66 66 68 70 72 71 72 70 69 72 73 73 74 74 75 75 76 76 76 76 75 75 74 74 74 74 73 72 71 71 71 71 72 72 71 68 69 71 70 69 71 71 70 70 71 72 69 68 67 72 73 71 71 68 70 73 71 73 74 75 74 74 72
9 7 5 5 11 14 19 20 27 18 19 21 15 15 14 15 24 30 34 34 27 33 38 44 46 46 48 49 45 46 47 61 65 66 66 67 68 69 69 68 71 72 70 72 72 72 73 74 75 76 76 76 75 75 75 75 74 74 74 74 74 75 74 70 70 70 69 70 68 69 71 71 70 68 71 70 70 69 71 71 71 69 70 70 71 72 70 71 70 71 72 74 74 76 76 75 73
6 3 6 4 11 17 16 35 20 21 20 21 18 16 26 26 32 25 27 27 31 35 35 33 45 47 53 52 50 50 53 53 63 66 67 66 66 67 68 70 71 72 71 72 71 71 73 75 76 76 75 76 75 75 75 75 75 75 75 74 75 77 75 75 74 73 70 70 70 70 73 72 72 70 68 68 69 69 71 72 70 70 70 74 74 74 75 77 77 71 72 71 72 74 75 75 75
0 5 9 10 15 14 15 15 19 17 14 14 17 25 21 21 22 27 30 31 32 37 40 41 49 51 54 52 51 50 48 49 58 62 65 66 67 67 68 69 70 71 70 70 71 73 74 75 76 76 75 76 76 75 75 75 75 75 75 76 75 75 74 74 74 73 69 72 73 72 68 68 70 67 66 68 68 69 68 69 71 70 72 74 75 76 76 75 76 75 74 72 70 72 74 75 76
4 5 4 8 16 9 16 13 12 13 15 14 22 17 24 20 28 25 30 28 32 31 33 46 49 52 54 56 58 50 51 56 59 63 63 65 67 66 67 69 69 70 69 68 69 72 74 74 75 76 75 76 76 75 75 75 75 75 75 76 76 75 74 74 73 75 77 75 71 69 70 68 67 68 67 69 70 70 68 70 70 69 71 73 74 75 73 74 75 74 75 74 72 73 72 72 73
7 7 7 7 9 13 10 12 11 9 10 14 25 19 19 28 33 29 31 26 28 28 38 44 49 51 56 57 59 56 52 50 48 58 56 66 68 68 67 66 67 69 68 68 69 71 70 72 75 75 75 75 75 74 74 73 72 73 72 73 74 75 75 74 77 76 76 75 74 72 71 72 69 69 70 69 68 68 68 69 70 68 71 72 72 73 74 72 75 73 73 74 73 69 71 71 71
8 5 6 5 9 6 12 12 7 10 13 19 22 33 32 25 31 25 30 30 30 30 31 38 48 51 52 53 55 56 55 52 46 51 56 66 67 66 67 68 66 67 67 68 69 70 71 72 74 75 75 74 72 72 73 71 71 71 72 72 74 74 73 74 74 73 73 74 75 74 74 72 69 71 67 68 67 69 69 68 68 67 70 70 70 73 72 75 76 74 72 74 73 70 72 70 69
4 5 6 7 9 10 13 11 17 12 12 17 16 19 26 34 33 30 29 31 29 29 28 34 46 47 49 50 55 60 58 56 53 56 55 62 65 66 67 68 68 67 68 69 68 70 70 71 73 73 74 70 71 72 73 72 71 71 72 73 74 74 73 74 74 74 75 76 75 73 75 73 72 69 70 66 66 67 68 71 68 69 67 67 68 67 69 74 76 75 73 75 72 73 75 73 72
3 3 7 6 13 15 19 15 15 16 18 24 21 21 23 27 39 27 30 26 31 35 39 40 37 44 49 51 53 53 54 57 55 53 55 56 58 63 67 68 70 67 68 69 68 70 69 70 72 73 70 70 72 72 72 71 71 71 71 72 73 73 73 74 75 75 75 74 73 73 73 74 74 71 70 70 71 66 67 68 70 68 69 68 69 67 69 73 74 74 73 74 73 75 75 74 74
8 8 7 5 9 10 13 12 18 20 16 19 30 27 39 34 33 31 30 34 33 39 39 44 44 47 50 54 53 53 58 60 60 55 51 56 54 62 63 65 67 70 69 68 68 69 70 71 72 71 72 73 74 74 73 73 73 73 72 73 73 74 74 74 75 74 73 73 73 72 72 71 72 70 70 68 69 68 67 65 65 65 65 65 65 64 66 69 73 73 72 72 73 74 74 74 72
6 7 9 10 9 8 10 10 10 14 20 26 25 31 37 33 35 34 34 34 36 35 43 49 52 51 48 52 60 61 60 61 59 55 52 53 54 61 64 67 70 70 70 68 68 67 69 70 68 71 72 73 73 73 72 72 72 74 74 73 73 72 73 75 75 73 73 73 73 71 72 71 72 72 71 69 66 68 68 67 66 66 64 67 68 67 66 68 71 73 72 73 72 74 73 73 74
8 10 11 8 8 13 14 16 9 9 13 24 31 35 40 39 42 35 37 38 39 46 48 48 50 49 53 55 59 62 62 61 59 59 51 53 61 60 63 68 69 70 69 70 70 68 68 67 66 69 70 70 70 70 71 71 72 72 72 72 73 73 74 74 74 75 74 73 72 72 71 73 71 73 74 72 70 66 65 67 67 67 66 65 68 70 67 67 68 70 70 68 70 75 75 73 73